ONEWEB-0059, 45162

Orbit data source: Space-Track

ONEWEB-0059, 45162 is a payload satellite owned by One Web (UK) in LEO that was launched on Thu, 06 Feb 2020 UTC via a SOYUZ-2-1B launch vehicle from the Tyuratam Missile And Space Complex (TTMTR). Payloads include a variety of satellites, spacecraft, and rockets equipped with specific instruments for various scientific and technological missions. These include communications satellites like Starlink; space stations such as the ISS; scientific satellites like the Hubble; Earth observation satellites from companies like Planet Labs, Umbra, and HawkEye 360; GPS; miniature CubeSats for education and research; and military/defense satellites.

Loading next visibility...
ONEWEB-0059 details
Identifier
45162, 2020-008AH
Orbit
LEO
Last TLE update1 day ago
Origin
Flag of UKOne Web (UK)
ManufacturerOne Web
MissionOperational Commercial Communications
Bus & MotorARROW, Unknown motor
Mass148 kg wet, ~140 kg dry
Launch date (UTC)
2020-02-06 (5 years ago)
Launch vehicle
SOYUZ-2-1B
Launch site
Tyuratam Missile And Space Complex (TTMTR)
Object type
Payload
Rocket body
Debris
Shape & HBRTrap Box + 2 Pan, 5 m
Radar Cross Section2.957 m², Large (>1 m²)

Expand to show TLE details & history

TLE from 1 day ago
0 ONEWEB-0059
1 45162U 20008AH  24360.42868488 -.00000458  00000-0 -13493-2 0  9992
2 45162  87.8899 143.6009 0001377 103.1765 256.9516 13.10370958237769
Epoch: 2024-12-25T10:17Z
Definitive object data (Epoch: 2024-12-25T10:17:18.373Z)
Latitude-0.00003°
Longitude-105.14822°
Altitude1,224.848 km
Speed7.242 km/s
True Right ascension09h 34m 24s
True Declination0° 00' 00"
Sunlit
Object was in full shadow at TLE epoch
Visualization TLE readout
Latitude20.53336°
Longitude-104.55928°
Altitude1,224.084 km
Speed7.244 km/s
Apparent Right ascension09h 42m 35s
Apparent Declination-32° 31' 41"
Sunlit
Object is in full shadow
Visualization observer readout
Local Sidereal Time09:34:06
Azimuth178.125° S
Elevation17.529°
Doppler factor1
Orbital elements
Apogee altitude1,219.89 km
Perigee altitude1,217.798 km
Semi-major axis7,596.981 km
Eccentricity0.0001377
Inclination87.8899°
RAAN143.6009°
Arg. of periapsis103.1765°
True anomaly256.93623°
Mean anomaly256.9516°
Eccentric anomaly256.94391°
Mean motion3.27779 °/min
BSTAR-0.0013493
Orbital period109.83 mins
Loading maneuver chart data...
Loading historical data...
Loading historical data...
Loading historical data...
Loading historical data...
Loading historical data...
Loading historical data...
Loading historical data...

ONEWEB-0059 Visibility forecast

Observer location: undefined°, undefined

Span
Click to sort rows by Start time (UTC) header in descending order
Start Az.
Max El. time (UTC)
Max El. Az.
Max El.
End time (UTC)
End Az.
13 mins2024-12-26 10:12:57.707Z178.132° S2024-12-26 10:18:57.707Z25.265° NE44.988°2024-12-26 10:25:57.707Z0.88° NNE
6 mins2024-12-26 12:06:57.707Z262.861° W2024-12-26 12:09:57.707Z289.175° WNW14.687°2024-12-26 12:12:57.707Z315.148° NNW
13 mins2024-12-26 21:42:57.707Z4.428° NNE2024-12-26 21:48:57.707Z73.557° E43.748°2024-12-26 21:55:57.707Z172.77° S
8 mins2024-12-26 23:34:57.707Z317.987° NNW2024-12-26 23:37:57.707Z290.057° WNW18.377°2024-12-26 23:42:57.707Z245.667° WSW
4 mins2024-12-27 08:17:57.707Z83.767° E2024-12-27 08:19:57.707Z66.511° ENE12.893°2024-12-27 08:21:57.707Z49.815° ENE
11 mins2024-12-27 10:01:57.707Z174.201° S2024-12-27 10:07:57.707Z130.976° SE44.522°2024-12-27 10:12:57.707Z3.732° NNE
|